Time,TemperatureF,DewpointF,PressureIn,WindDirection,WindDirectionDegrees,WindSpeedMPH,WindSpeedGustMPH,Humidity,HourlyPrecipIn,Conditions,Clouds,dailyrainin,SoftwareType,DateUTC
2013-05-22 00:05:00,66.9,41.2,29.18,East,96,4.9,11.0,39,0.00,,,0.43,VWS V13.01,2013-05-22 04:05:00,
2013-05-22 00:10:00,66.9,41.2,29.18,SSE,161,3.1,11.0,39,0.00,,,0.43,VWS V13.01,2013-05-22 04:10:00,
2013-05-22 00:15:00,66.6,41.5,29.21,East,96,6.3,11.0,40,0.00,,,0.43,VWS V13.01,2013-05-22 04:15:00,
2013-05-22 00:20:00,66.7,41.7,29.21,ENE,73,6.3,11.0,40,0.00,,,0.43,VWS V13.01,2013-05-22 04:20:00,
2013-05-22 00:25:00,66.9,40.5,29.21,ENE,74,2.7,11.0,38,0.00,,,0.43,VWS V13.01,2013-05-22 04:25:00,
2013-05-22 00:30:00,66.9,41.2,29.18,ESE,112,8.1,11.0,39,0.00,,,0.43,VWS V13.01,2013-05-22 04:30:00,
2013-05-22 00:35:00,66.7,41.0,29.18,ESE,117,5.4,11.0,39,0.00,,,0.43,VWS V13.01,2013-05-22 04:35:00,
2013-05-22 00:40:00,66.9,40.5,29.18,ESE,116,6.3,11.0,38,0.00,,,0.43,VWS V13.01,2013-05-22 04:40:00,
2013-05-22 00:45:00,66.9,40.5,29.18,ESE,122,6.3,11.0,38,0.00,,,0.43,VWS V13.01,2013-05-22 04:45:00,
2013-05-22 00:50:00,66.9,40.5,29.18,East,92,5.4,11.0,38,0.00,,,0.43,VWS V13.01,2013-05-22 04:50:00,
2013-05-22 00:55:00,66.9,40.5,29.18,East,101,5.4,11.0,38,0.00,,,0.43,VWS V13.01,2013-05-22 04:55:00,
2013-05-22 01:00:00,66.7,41.7,29.18,East,98,5.8,11.0,40,0.00,,,0.43,VWS V13.01,2013-05-22 05:00:00,
2013-05-22 01:05:00,66.4,42.0,29.18,East,100,6.3,11.0,41,0.00,,,0.43,VWS V13.01,2013-05-22 05:05:00,
2013-05-22 01:10:00,66.0,42.9,29.18,SE,124,6.3,11.0,43,0.00,,,0.43,VWS V13.01,2013-05-22 05:10:00,
2013-05-22 01:15:00,66.2,42.5,29.18,ESE,118,5.4,11.0,42,0.00,,,0.43,VWS V13.01,2013-05-22 05:15:00,
2013-05-22 01:20:00,66.2,41.8,29.18,SE,133,5.4,11.0,41,0.00,,,0.43,VWS V13.01,2013-05-22 05:20:00,
2013-05-22 01:25:00,66.2,42.5,29.18,SE,128,5.4,11.0,42,0.00,,,0.43,VWS V13.01,2013-05-22 05:25:00,
2013-05-22 01:30:00,66.2,42.5,29.18,ESE,119,4.9,11.0,42,0.00,,,0.43,VWS V13.01,2013-05-22 05:30:00,
2013-05-22 01:35:00,66.0,42.9,29.18,ESE,112,5.8,11.0,43,0.00,,,0.43,VWS V13.01,2013-05-22 05:35:00,
2013-05-22 01:40:00,66.0,42.9,29.18,ESE,108,3.6,11.0,43,0.00,,,0.43,VWS V13.01,2013-05-22 05:40:00,
2013-05-22 01:45:00,66.0,42.9,29.18,ESE,118,6.3,11.0,43,0.00,,,0.43,VWS V13.01,2013-05-22 05:45:00,
2013-05-22 01:50:00,66.0,42.9,29.18,ESE,116,6.3,11.0,43,0.00,,,0.43,VWS V13.01,2013-05-22 05:50:00,
2013-05-22 01:55:00,65.8,43.3,29.18,SE,126,5.4,11.0,44,0.00,,,0.43,VWS V13.01,2013-05-22 05:55:00,
2013-05-22 02:00:00,65.8,43.3,29.15,SE,131,4.0,11.0,44,0.00,,,0.43,VWS V13.01,2013-05-22 06:00:00,
2013-05-22 02:05:00,65.8,43.3,29.15,ESE,115,5.8,11.0,44,0.00,,,0.43,VWS V13.01,2013-05-22 06:05:00,
2013-05-22 02:10:00,66.0,42.9,29.15,ESE,112,5.8,11.0,43,0.00,,,0.43,VWS V13.01,2013-05-22 06:10:00,
2013-05-22 02:15:00,66.4,40.7,29.15,East,81,5.8,13.2,39,0.00,,,0.43,VWS V13.01,2013-05-22 06:15:00,
2013-05-22 02:20:00,66.7,39.7,29.15,ESE,105,5.8,13.2,37,0.00,,,0.43,VWS V13.01,2013-05-22 06:20:00,
2013-05-22 02:26:00,67.1,39.3,29.15,ESE,116,7.6,13.2,36,0.00,,,0.43,VWS V13.01,2013-05-22 06:26:00,
2013-05-22 02:31:00,67.1,39.3,29.15,East,82,7.6,13.2,36,0.00,,,0.43,VWS V13.01,2013-05-22 06:31:00,
2013-05-22 02:36:00,67.1,38.6,29.15,ESE,115,6.3,13.2,35,0.00,,,0.43,VWS V13.01,2013-05-22 06:36:00,
2013-05-22 02:41:00,67.1,39.3,29.15,ESE,102,4.9,13.2,36,0.00,,,0.43,VWS V13.01,2013-05-22 06:41:00,
2013-05-22 02:46:00,66.9,39.1,29.15,ESE,108,6.3,13.2,36,0.00,,,0.43,VWS V13.01,2013-05-22 06:46:00,
2013-05-22 02:51:00,66.9,39.1,29.15,East,83,8.3,13.2,36,0.00,,,0.43,VWS V13.01,2013-05-22 06:51:00,
2013-05-22 02:56:00,67.1,38.6,29.15,ESE,118,8.3,13.2,35,0.00,,,0.43,VWS V13.01,2013-05-22 06:56:00,
2013-05-22 03:01:00,67.1,38.6,29.15,ESE,115,4.9,13.2,35,0.00,,,0.43,VWS V13.01,2013-05-22 07:01:00,
2013-05-22 03:06:00,67.5,38.1,29.15,East,83,8.7,13.2,34,0.00,,,0.43,VWS V13.01,2013-05-22 07:06:00,
2013-05-22 03:11:00,67.8,37.7,29.15,ESE,118,8.3,13.2,33,0.00,,,0.43,VWS V13.01,2013-05-22 07:11:00,
2013-05-22 03:16:00,68.0,37.1,29.15,East,83,8.1,13.2,32,0.00,,,0.43,VWS V13.01,2013-05-22 07:16:00,
2013-05-22 03:21:00,68.0,37.1,29.15,ESE,111,0.0,13.2,32,0.00,,,0.43,VWS V13.01,2013-05-22 07:21:00,
2013-05-22 03:26:00,67.8,37.7,29.15,WSW,250,3.1,13.2,33,0.00,,,0.43,VWS V13.01,2013-05-22 07:26:00,
2013-05-22 03:31:00,66.6,38.1,29.15,ESE,111,2.7,13.2,35,0.00,,,0.43,VWS V13.01,2013-05-22 07:31:00,
2013-05-22 03:36:00,65.5,38.5,29.15,NNW,344,2.2,13.2,37,0.00,,,0.43,VWS V13.01,2013-05-22 07:36:00,
2013-05-22 03:41:00,64.8,39.9,29.15,SE,129,3.1,13.2,40,0.00,,,0.43,VWS V13.01,2013-05-22 07:41:00,
2013-05-22 03:46:00,64.4,42.6,29.15,East,100,2.7,13.2,45,0.00,,,0.43,VWS V13.01,2013-05-22 07:46:00,
2013-05-22 03:51:00,64.0,44.0,29.15,East,93,4.9,13.2,48,0.00,,,0.43,VWS V13.01,2013-05-22 07:51:00,
2013-05-22 03:56:00,63.5,44.5,29.15,East,100,4.0,13.2,50,0.00,,,0.43,VWS V13.01,2013-05-22 07:56:00,
2013-05-22 04:01:00,63.3,44.9,29.15,East,92,0.0,13.2,51,0.00,,,0.43,VWS V13.01,2013-05-22 08:01:00,
2013-05-22 04:06:00,63.1,45.8,29.15,ESE,117,4.9,13.2,53,0.00,,,0.43,VWS V13.01,2013-05-22 08:06:00,
2013-05-22 04:11:00,63.0,48.0,29.15,East,99,7.6,13.2,58,0.00,,,0.43,VWS V13.01,2013-05-22 08:11:00,
2013-05-22 04:16:00,63.0,48.9,29.15,SE,131,3.1,13.2,60,0.00,,,0.43,VWS V13.01,2013-05-22 08:16:00,
2013-05-22 05:18:00,66.2,41.8,29.15,ESE,117,8.7,13.2,41,0.00,,,0.43,VWS V13.01,2013-05-22 09:18:00,
2013-05-22 05:23:00,66.2,42.5,29.15,ESE,123,5.4,13.2,42,0.00,,,0.43,VWS V13.01,2013-05-22 09:23:00,
2013-05-22 05:28:00,66.2,41.8,29.15,SE,137,4.9,13.2,41,0.00,,,0.43,VWS V13.01,2013-05-22 09:28:00,
2013-05-22 05:33:00,66.2,41.8,29.15,ENE,76,8.1,13.2,41,0.00,,,0.43,VWS V13.01,2013-05-22 09:33:00,
2013-05-22 05:38:00,66.2,42.5,29.15,East,91,6.3,13.2,42,0.00,,,0.43,VWS V13.01,2013-05-22 09:38:00,
2013-05-22 05:43:00,66.2,42.5,29.15,East,86,6.3,13.2,42,0.00,,,0.43,VWS V13.01,2013-05-22 09:43:00,
2013-05-22 05:48:00,66.4,42.6,29.15,ESE,105,10.1,13.2,42,0.00,,,0.43,VWS V13.01,2013-05-22 09:48:00,
2013-05-22 05:53:00,66.4,42.6,29.15,East,98,8.3,13.2,42,0.00,,,0.43,VWS V13.01,2013-05-22 09:53:00,
2013-05-22 05:58:00,66.4,42.6,29.12,ESE,105,6.3,13.2,42,0.00,,,0.43,VWS V13.01,2013-05-22 09:58:00,
2013-05-22 06:03:00,66.4,42.6,29.12,East,98,4.0,13.2,42,0.00,,,0.43,VWS V13.01,2013-05-22 10:03:00,
2013-05-22 06:08:00,66.4,42.6,29.12,ESE,106,5.8,13.2,42,0.00,,,0.43,VWS V13.01,2013-05-22 10:08:00,
2013-05-22 06:13:00,66.2,43.1,29.15,SE,125,6.7,13.2,43,0.00,,,0.43,VWS V13.01,2013-05-22 10:13:00,
2013-05-22 06:18:00,66.2,43.1,29.15,ESE,109,8.7,13.2,43,0.00,,,0.43,VWS V13.01,2013-05-22 10:18:00,
2013-05-22 06:23:00,66.0,42.9,29.15,East,86,5.8,13.2,43,0.00,,,0.43,VWS V13.01,2013-05-22 10:23:00,
2013-05-22 06:28:00,66.0,43.5,29.15,SE,137,3.6,13.2,44,0.00,,,0.43,VWS V13.01,2013-05-22 10:28:00,
2013-05-22 06:33:00,66.2,43.7,29.15,SE,130,4.0,13.2,44,0.00,,,0.43,VWS V13.01,2013-05-22 10:33:00,
2013-05-22 06:38:00,66.2,43.1,29.15,East,101,7.2,13.2,43,0.00,,,0.43,VWS V13.01,2013-05-22 10:38:00,
2013-05-22 06:43:00,66.2,43.7,29.15,ESE,121,6.3,13.2,44,0.00,,,0.43,VWS V13.01,2013-05-22 10:43:00,
2013-05-22 06:48:00,66.2,43.7,29.15,East,89,5.4,13.2,44,0.00,,,0.43,VWS V13.01,2013-05-22 10:48:00,
2013-05-22 06:53:00,66.2,43.7,29.15,ESE,103,7.2,13.2,44,0.00,,,0.43,VWS V13.01,2013-05-22 10:53:00,
2013-05-22 06:58:00,66.2,43.7,29.15,ESE,121,4.0,13.2,44,0.00,,,0.43,VWS V13.01,2013-05-22 10:58:00,
2013-05-22 07:03:00,66.4,43.8,29.15,East,97,8.1,13.2,44,0.00,,,0.43,VWS V13.01,2013-05-22 11:03:00,
2013-05-22 07:08:00,66.6,44.0,29.15,SE,130,8.3,13.2,44,0.00,,,0.43,VWS V13.01,2013-05-22 11:08:00,
2013-05-22 07:13:00,66.6,44.0,29.15,SE,131,7.6,13.2,44,0.00,,,0.43,VWS V13.01,2013-05-22 11:13:00,
2013-05-22 07:18:00,66.6,44.0,29.15,ESE,105,6.7,13.2,44,0.00,,,0.43,VWS V13.01,2013-05-22 11:18:00,
2013-05-22 07:23:00,66.7,44.2,29.15,East,90,7.6,13.2,44,0.00,,,0.43,VWS V13.01,2013-05-22 11:23:00,
2013-05-22 07:28:00,66.9,44.3,29.15,East,101,5.8,13.2,44,0.00,,,0.43,VWS V13.01,2013-05-22 11:28:00,
2013-05-22 07:33:00,67.3,44.7,29.15,ENE,59,5.8,13.2,44,0.00,,,0.43,VWS V13.01,2013-05-22 11:33:00,
2013-05-22 07:38:00,67.6,44.4,29.15,East,85,3.1,13.2,43,0.00,,,0.43,VWS V13.01,2013-05-22 11:38:00,
2013-05-22 07:43:00,68.0,43.5,29.15,ESE,115,4.0,13.2,41,0.00,,,0.43,VWS V13.01,2013-05-22 11:43:00,
2013-05-22 07:48:00,68.4,42.5,29.15,SSE,158,7.6,13.2,39,0.00,,,0.43,VWS V13.01,2013-05-22 11:48:00,
2013-05-22 07:53:00,68.4,42.5,29.15,SE,128,5.4,13.2,39,0.00,,,0.43,VWS V13.01,2013-05-22 11:53:00,
2013-05-22 07:58:00,68.4,42.5,29.15,ESE,115,6.3,13.2,39,0.00,,,0.43,VWS V13.01,2013-05-22 11:58:00,
2013-05-22 08:03:00,68.5,42.6,29.15,East,79,7.2,13.2,39,0.00,,,0.43,VWS V13.01,2013-05-22 12:03:00,
2013-05-22 08:08:00,68.5,42.6,29.15,ESE,105,8.1,13.2,39,0.00,,,0.43,VWS V13.01,2013-05-22 12:08:00,
2013-05-22 08:13:00,68.7,42.8,29.15,ESE,113,5.8,13.2,39,0.00,,,0.43,VWS V13.01,2013-05-22 12:13:00,
2013-05-22 08:18:00,68.9,42.3,29.15,ENE,73,7.6,13.2,38,0.00,,,0.43,VWS V13.01,2013-05-22 12:18:00,
2013-05-22 08:23:00,69.1,42.4,29.15,ESE,116,5.8,13.2,38,0.00,,,0.43,VWS V13.01,2013-05-22 12:23:00,
2013-05-22 08:28:00,69.3,41.9,29.15,ESE,104,6.3,13.2,37,0.00,,,0.43,VWS V13.01,2013-05-22 12:28:00,
2013-05-22 08:33:00,69.4,42.1,29.15,East,100,8.1,13.2,37,0.00,,,0.43,VWS V13.01,2013-05-22 12:33:00,
2013-05-22 08:38:00,69.8,40.9,29.15,SE,128,3.6,13.2,35,0.00,,,0.43,VWS V13.01,2013-05-22 12:38:00,
2013-05-22 08:43:00,70.3,41.4,29.15,NE,56,4.9,13.2,35,0.00,,,0.43,VWS V13.01,2013-05-22 12:43:00,
2013-05-22 08:48:00,71.2,41.5,29.15,East,95,4.0,13.2,34,0.00,,,0.43,VWS V13.01,2013-05-22 12:48:00,
2013-05-22 08:53:00,72.0,41.3,29.15,ESE,116,2.2,13.2,33,0.00,,,0.43,VWS V13.01,2013-05-22 12:53:00,
2013-05-22 08:58:00,72.3,40.8,29.15,SW,227,2.7,13.2,32,0.00,,,0.43,VWS V13.01,2013-05-22 12:58:00,
2013-05-22 09:03:00,72.7,41.2,29.15,ENE,74,5.8,13.2,32,0.00,,,0.43,VWS V13.01,2013-05-22 13:03:00,
2013-05-22 09:08:00,72.5,41.0,29.15,ENE,60,3.1,13.2,32,0.00,,,0.43,VWS V13.01,2013-05-22 13:08:00,
2013-05-22 09:13:00,72.5,41.0,29.15,ESE,102,4.9,13.2,32,0.00,,,0.43,VWS V13.01,2013-05-22 13:13:00,
2013-05-22 09:18:00,72.7,41.2,29.15,ESE,116,4.9,13.2,32,0.00,,,0.43,VWS V13.01,2013-05-22 13:18:00,
2013-05-22 09:23:00,73.2,40.8,29.15,ENE,75,5.8,13.2,31,0.00,,,0.43,VWS V13.01,2013-05-22 13:23:00,
2013-05-22 09:28:00,73.8,41.3,29.15,SE,138,5.4,13.2,31,0.00,,,0.43,VWS V13.01,2013-05-22 13:28:00,
2013-05-22 09:35:00,74.1,39.0,29.15,SE,125,3.1,13.2,28,0.00,,,0.43,VWS V13.01,2013-05-22 13:35:00,
2013-05-22 09:40:00,73.9,37.9,29.15,ESE,119,8.3,13.2,27,0.00,,,0.43,VWS V13.01,2013-05-22 13:40:00,
2013-05-22 09:45:00,73.9,39.7,29.15,East,98,6.3,13.2,29,0.00,,,0.43,VWS V13.01,2013-05-22 13:45:00,
2013-05-22 09:50:00,74.5,39.3,29.15,ENE,77,7.6,13.2,28,0.00,,,0.43,VWS V13.01,2013-05-22 13:50:00,
2013-05-22 09:55:00,74.8,39.6,29.15,South,169,3.6,13.2,28,0.00,,,0.43,VWS V13.01,2013-05-22 13:55:00,
2013-05-22 10:00:00,74.7,39.4,29.15,ESE,110,5.8,13.2,28,0.00,,,0.43,VWS V13.01,2013-05-22 14:00:00,
2013-05-22 10:05:00,74.5,39.3,29.15,SE,126,8.1,13.2,28,0.00,,,0.43,VWS V13.01,2013-05-22 14:05:00,
2013-05-22 10:11:00,74.5,38.3,29.15,South,169,6.3,13.2,27,0.00,,,0.43,VWS V13.01,2013-05-22 14:11:00,
2013-05-22 10:16:00,74.3,38.2,29.15,SE,139,6.7,13.2,27,0.00,,,0.43,VWS V13.01,2013-05-22 14:16:00,
2013-05-22 10:21:00,74.1,40.7,29.15,East,101,3.1,13.2,30,0.00,,,0.43,VWS V13.01,2013-05-22 14:21:00,
2013-05-22 10:26:00,73.9,38.8,29.15,WSW,241,3.6,13.2,28,0.00,,,0.43,VWS V13.01,2013-05-22 14:26:00,
2013-05-22 10:31:00,74.3,38.2,29.15,SSW,197,3.1,13.2,27,0.00,,,0.43,VWS V13.01,2013-05-22 14:31:00,
2013-05-22 10:36:00,74.7,35.5,29.15,SW,228,3.6,13.2,24,0.00,,,0.43,VWS V13.01,2013-05-22 14:36:00,
2013-05-22 10:41:00,75.0,34.7,29.15,SW,220,0.0,13.2,23,0.00,,,0.43,VWS V13.01,2013-05-22 14:41:00,
2013-05-22 10:46:00,75.4,35.0,29.15,South,173,0.0,13.2,23,0.00,,,0.43,VWS V13.01,2013-05-22 14:46:00,
2013-05-22 10:51:00,75.9,34.4,29.15,SE,133,0.0,13.2,22,0.00,,,0.43,VWS V13.01,2013-05-22 14:51:00,
2013-05-22 10:56:00,76.3,34.7,29.15,WNW,289,2.7,13.2,22,0.00,,,0.43,VWS V13.01,2013-05-22 14:56:00,
2013-05-22 11:01:00,76.5,33.7,29.15,SE,127,2.7,13.2,21,0.00,,,0.43,VWS V13.01,2013-05-22 15:01:00,
2013-05-22 11:06:00,76.8,34.0,29.15,SW,232,3.1,13.2,21,0.00,,,0.43,VWS V13.01,2013-05-22 15:06:00,
2013-05-22 11:13:00,77.2,33.0,29.15,SE,143,8.3,13.2,20,0.00,,,0.43,VWS V13.01,2013-05-22 15:13:00,
2013-05-22 11:21:00,78.1,33.8,29.15,ESE,119,10.1,15.0,20,0.00,,,0.43,VWS V13.01,2013-05-22 15:21:00,
2013-05-22 11:26:00,78.4,31.5,29.15,WSW,252,9.2,15.0,18,0.00,,,0.43,VWS V13.01,2013-05-22 15:26:00,
2013-05-22 11:31:00,78.4,34.1,29.15,SSW,195,7.2,15.0,20,0.00,,,0.43,VWS V13.01,2013-05-22 15:31:00,
2013-05-22 11:36:00,78.1,33.8,29.15,SSW,197,2.7,15.0,20,0.00,,,0.43,VWS V13.01,2013-05-22 15:36:00,
2013-05-22 11:41:00,78.3,33.9,29.18,West,273,3.1,15.0,20,0.00,,,0.43,VWS V13.01,2013-05-22 15:41:00,
2013-05-22 11:46:00,78.3,33.9,29.18,West,275,5.8,15.0,20,0.00,,,0.43,VWS V13.01,2013-05-22 15:46:00,
2013-05-22 11:51:00,78.4,35.3,29.18,WSW,239,6.7,15.0,21,0.00,,,0.43,VWS V13.01,2013-05-22 15:51:00,
2013-05-22 11:56:00,78.6,34.2,29.15,WSW,240,2.7,15.0,20,0.00,,,0.43,VWS V13.01,2013-05-22 15:56:00,
2013-05-22 12:01:00,78.8,34.4,29.15,West,265,2.7,15.0,20,0.00,,,0.43,VWS V13.01,2013-05-22 16:01:00,
2013-05-22 12:06:00,79.0,34.5,29.15,West,266,2.7,15.0,20,0.00,,,0.43,VWS V13.01,2013-05-22 16:06:00,
2013-05-22 12:11:00,79.0,30.5,29.15,WSW,237,10.5,15.0,17,0.00,,,0.43,VWS V13.01,2013-05-22 16:11:00,
2013-05-22 12:16:00,79.2,30.6,29.15,WSW,246,5.8,15.0,17,0.00,,,0.43,VWS V13.01,2013-05-22 16:16:00,
2013-05-22 12:21:00,79.3,30.8,29.15,WSW,249,8.3,15.0,17,0.00,,,0.43,VWS V13.01,2013-05-22 16:21:00,
2013-05-22 12:26:00,79.3,30.8,29.15,WSW,249,5.4,15.0,17,0.00,,,0.43,VWS V13.01,2013-05-22 16:26:00,
2013-05-22 12:31:00,79.2,27.6,29.15,WSW,257,6.3,15.0,15,0.00,,,0.43,VWS V13.01,2013-05-22 16:31:00,
2013-05-22 12:36:00,79.0,27.4,29.15,SW,231,4.0,15.0,15,0.00,,,0.43,VWS V13.01,2013-05-22 16:36:00,
2013-05-22 12:41:00,78.8,27.3,29.15,WSW,253,8.1,15.0,15,0.00,,,0.43,VWS V13.01,2013-05-22 16:41:00,
2013-05-22 12:46:00,78.6,27.1,29.15,WSW,243,3.6,15.0,15,0.00,,,0.43,VWS V13.01,2013-05-22 16:46:00,
2013-05-22 12:51:00,78.6,27.1,29.15,West,265,7.6,15.0,15,0.00,,,0.43,VWS V13.01,2013-05-22 16:51:00,
2013-05-22 12:56:00,78.6,27.1,29.15,WNW,289,5.4,15.0,15,0.00,,,0.43,VWS V13.01,2013-05-22 16:56:00,
2013-05-22 13:01:00,78.8,27.3,29.15,WSW,237,6.7,15.0,15,0.00,,,0.43,VWS V13.01,2013-05-22 17:01:00,
2013-05-22 13:06:00,78.8,27.3,29.15,SSW,205,2.7,15.0,15,0.00,,,0.43,VWS V13.01,2013-05-22 17:06:00,
2013-05-22 13:11:00,79.0,27.4,29.15,SSW,208,4.0,15.0,15,0.00,,,0.43,VWS V13.01,2013-05-22 17:11:00,
2013-05-22 13:16:00,78.8,27.3,29.15,SW,223,3.6,15.0,15,0.00,,,0.43,VWS V13.01,2013-05-22 17:16:00,
2013-05-22 13:21:00,78.6,23.7,29.15,WSW,250,10.1,15.0,13,0.00,,,0.43,VWS V13.01,2013-05-22 17:21:00,
2013-05-22 13:26:00,78.3,23.4,29.15,WSW,238,5.4,15.0,13,0.00,,,0.43,VWS V13.01,2013-05-22 17:26:00,
2013-05-22 13:31:00,78.3,26.9,29.15,WSW,243,6.3,15.0,15,0.00,,,0.43,VWS V13.01,2013-05-22 17:31:00,
2013-05-22 13:36:00,78.1,26.7,29.15,West,265,2.7,15.0,15,0.00,,,0.43,VWS V13.01,2013-05-22 17:36:00,
2013-05-22 13:41:00,77.9,26.6,29.15,NW,314,4.0,15.0,15,0.00,,,0.43,VWS V13.01,2013-05-22 17:41:00,
2013-05-22 13:46:00,77.9,26.6,29.15,WSW,239,5.4,15.0,15,0.00,,,0.43,VWS V13.01,2013-05-22 17:46:00,
2013-05-22 13:51:00,77.7,26.4,29.15,ESE,104,2.2,15.0,15,0.00,,,0.43,VWS V13.01,2013-05-22 17:51:00,
2013-05-22 13:56:00,77.7,30.9,29.15,SW,224,4.9,15.0,18,0.00,,,0.43,VWS V13.01,2013-05-22 17:56:00,
2013-05-22 14:01:00,77.5,26.3,29.15,SW,235,0.0,15.0,15,0.00,,,0.43,VWS V13.01,2013-05-22 18:01:00,
2013-05-22 14:06:00,77.5,30.7,29.15,SW,235,4.0,15.0,18,0.00,,,0.43,VWS V13.01,2013-05-22 18:06:00,
2013-05-22 14:11:00,77.5,33.3,29.15,East,97,0.0,15.0,20,0.00,,,0.43,VWS V13.01,2013-05-22 18:11:00,
2013-05-22 14:16:00,77.7,33.5,29.15,SSW,202,0.0,15.0,20,0.00,,,0.43,VWS V13.01,2013-05-22 18:16:00,
2013-05-22 14:21:00,78.1,33.8,29.15,WSW,249,3.1,15.0,20,0.00,,,0.43,VWS V13.01,2013-05-22 18:21:00,
2013-05-22 14:26:00,78.3,33.9,29.15,NNE,24,2.2,15.0,20,0.00,,,0.43,VWS V13.01,2013-05-22 18:26:00,
2013-05-22 14:31:00,78.4,31.5,29.15,SE,144,4.0,15.0,18,0.00,,,0.43,VWS V13.01,2013-05-22 18:31:00,
2013-05-22 14:36:00,78.4,31.5,29.15,SSE,166,3.1,15.0,18,0.00,,,0.43,VWS V13.01,2013-05-22 18:36:00,
2013-05-22 14:41:00,78.4,31.5,29.15,SSE,167,0.0,15.0,18,0.00,,,0.43,VWS V13.01,2013-05-22 18:41:00,
2013-05-22 14:46:00,78.6,27.1,29.15,West,267,3.6,15.0,15,0.00,,,0.43,VWS V13.01,2013-05-22 18:46:00,
2013-05-22 14:51:00,78.4,31.5,29.15,SSE,154,2.7,15.0,18,0.00,,,0.43,VWS V13.01,2013-05-22 18:51:00,
2013-05-22 14:56:00,78.8,27.3,29.15,SSE,147,7.2,15.0,15,0.00,,,0.43,VWS V13.01,2013-05-22 18:56:00,
2013-05-22 15:01:00,78.6,27.1,29.15,SSW,197,5.8,15.0,15,0.00,,,0.43,VWS V13.01,2013-05-22 19:01:00,
2013-05-22 15:06:00,78.6,27.1,29.15,WSW,238,7.2,15.0,15,0.00,,,0.43,VWS V13.01,2013-05-22 19:06:00,
2013-05-22 15:11:00,78.3,26.9,29.15,SW,235,3.6,15.0,15,0.00,,,0.43,VWS V13.01,2013-05-22 19:11:00,
2013-05-22 15:16:00,78.1,26.7,29.15,SW,234,3.1,15.0,15,0.00,,,0.43,VWS V13.01,2013-05-22 19:16:00,
2013-05-22 15:21:00,78.3,26.9,29.15,SE,128,3.1,15.0,15,0.00,,,0.43,VWS V13.01,2013-05-22 19:21:00,
2013-05-22 15:26:00,78.3,23.4,29.12,South,180,3.6,15.0,13,0.00,,,0.43,VWS V13.01,2013-05-22 19:26:00,
2013-05-22 15:31:00,78.4,23.6,29.12,SSW,195,5.8,15.0,13,0.00,,,0.43,VWS V13.01,2013-05-22 19:31:00,
2013-05-22 15:36:00,78.6,23.7,29.12,WSW,253,3.6,15.0,13,0.00,,,0.43,VWS V13.01,2013-05-22 19:36:00,
2013-05-22 15:41:00,79.2,27.6,29.12,SW,235,5.4,15.0,15,0.00,,,0.43,VWS V13.01,2013-05-22 19:41:00,
2013-05-22 15:46:00,79.3,22.4,29.12,SW,231,3.1,15.0,12,0.00,,,0.43,VWS V13.01,2013-05-22 19:46:00,
2013-05-22 15:51:00,79.2,22.2,29.12,SW,224,7.6,15.0,12,0.00,,,0.43,VWS V13.01,2013-05-22 19:51:00,
2013-05-22 15:56:00,79.2,22.2,29.12,WSW,242,6.3,15.0,12,0.00,,,0.43,VWS V13.01,2013-05-22 19:56:00,
2013-05-22 16:01:00,79.0,22.1,29.12,WSW,248,2.7,15.0,12,0.00,,,0.43,VWS V13.01,2013-05-22 20:01:00,
2013-05-22 16:06:00,79.0,22.1,29.12,WSW,249,3.6,15.0,12,0.00,,,0.43,VWS V13.01,2013-05-22 20:06:00,
2013-05-22 16:11:00,78.8,22.0,29.12,South,169,3.1,15.0,12,0.00,,,0.43,VWS V13.01,2013-05-22 20:11:00,
2013-05-22 16:16:00,78.6,23.7,29.12,SW,236,5.8,15.0,13,0.00,,,0.43,VWS V13.01,2013-05-22 20:16:00,
2013-05-22 16:21:00,78.6,23.7,29.12,WNW,286,3.6,15.0,13,0.00,,,0.43,VWS V13.01,2013-05-22 20:21:00,
2013-05-22 16:26:00,78.6,23.7,29.12,SW,231,2.7,15.0,13,0.00,,,0.43,VWS V13.01,2013-05-22 20:26:00,
2013-05-22 16:31:00,78.6,23.7,29.12,WSW,248,3.1,15.0,13,0.00,,,0.43,VWS V13.01,2013-05-22 20:31:00,
2013-05-22 16:36:00,79.0,22.1,29.12,SW,234,3.1,15.0,12,0.00,,,0.43,VWS V13.01,2013-05-22 20:36:00,
2013-05-22 16:41:00,79.7,22.6,29.09,WSW,237,4.0,15.0,12,0.00,,,0.43,VWS V13.01,2013-05-22 20:41:00,
2013-05-22 16:46:00,79.9,22.8,29.09,SW,224,5.8,15.0,12,0.00,,,0.43,VWS V13.01,2013-05-22 20:46:00,
2013-05-22 16:51:00,80.1,22.9,29.09,West,271,0.0,15.0,12,0.00,,,0.43,VWS V13.01,2013-05-22 20:51:00,
2013-05-22 16:56:00,80.6,23.4,29.09,SSW,212,6.3,15.0,12,0.00,,,0.43,VWS V13.01,2013-05-22 20:56:00,
2013-05-22 17:01:00,80.4,23.2,29.09,South,189,4.0,15.0,12,0.00,,,0.43,VWS V13.01,2013-05-22 21:01:00,
2013-05-22 17:06:00,80.2,23.1,29.09,SSW,213,4.0,15.0,12,0.00,,,0.43,VWS V13.01,2013-05-22 21:06:00,
2013-05-22 17:11:00,80.4,23.2,29.09,WSW,240,7.6,15.0,12,0.00,,,0.43,VWS V13.01,2013-05-22 21:11:00,
2013-05-22 17:16:00,80.4,23.2,29.09,SW,224,10.1,15.0,12,0.00,,,0.43,VWS V13.01,2013-05-22 21:16:00,
2013-05-22 17:21:00,80.4,23.2,29.09,SW,221,3.1,15.0,12,0.00,,,0.43,VWS V13.01,2013-05-22 21:21:00,
2013-05-22 17:26:00,80.6,23.4,29.09,SW,214,2.7,15.0,12,0.00,,,0.43,VWS V13.01,2013-05-22 21:26:00,
2013-05-22 17:31:00,80.6,23.4,29.09,SW,230,4.0,15.0,12,0.00,,,0.43,VWS V13.01,2013-05-22 21:31:00,
2013-05-22 17:36:00,80.6,16.6,29.09,WSW,256,3.1,15.0,9,0.00,,,0.43,VWS V13.01,2013-05-22 21:36:00,
2013-05-22 17:41:00,80.4,18.9,29.09,West,280,4.0,15.0,10,0.00,,,0.43,VWS V13.01,2013-05-22 21:41:00,
2013-05-22 17:46:00,80.2,18.8,29.09,SW,233,8.3,15.0,10,0.00,,,0.43,VWS V13.01,2013-05-22 21:46:00,
2013-05-22 17:51:00,79.9,18.5,29.09,WSW,241,7.6,15.0,10,0.00,,,0.43,VWS V13.01,2013-05-22 21:51:00,
2013-05-22 17:56:00,79.7,18.4,29.09,West,277,3.6,15.0,10,0.00,,,0.43,VWS V13.01,2013-05-22 21:56:00,
2013-05-22 18:01:00,79.3,18.1,29.09,SW,227,0.0,15.0,10,0.00,,,0.43,VWS V13.01,2013-05-22 22:01:00,
2013-05-22 18:06:00,79.3,18.1,29.09,SW,229,3.1,15.0,10,0.00,,,0.43,VWS V13.01,2013-05-22 22:06:00,
2013-05-22 18:11:00,79.3,18.1,29.09,SW,221,3.1,15.0,10,0.00,,,0.43,VWS V13.01,2013-05-22 22:11:00,
2013-05-22 18:16:00,79.2,18.0,29.09,SW,231,3.6,15.0,10,0.00,,,0.43,VWS V13.01,2013-05-22 22:16:00,
2013-05-22 18:21:00,79.0,17.8,29.09,WSW,240,4.0,15.0,10,0.00,,,0.43,VWS V13.01,2013-05-22 22:21:00,
2013-05-22 18:26:00,79.0,17.8,29.09,SW,234,3.1,15.0,10,0.00,,,0.43,VWS V13.01,2013-05-22 22:26:00,
2013-05-22 18:31:00,78.8,17.7,29.09,WSW,244,5.8,15.0,10,0.00,,,0.43,VWS V13.01,2013-05-22 22:31:00,
2013-05-22 18:36:00,78.8,17.7,29.09,SW,235,0.0,15.0,10,0.00,,,0.43,VWS V13.01,2013-05-22 22:36:00,
2013-05-22 18:41:00,79.0,17.8,29.09,West,276,4.0,15.0,10,0.00,,,0.43,VWS V13.01,2013-05-22 22:41:00,
2013-05-22 18:46:00,78.8,17.7,29.09,WSW,250,4.9,15.0,10,0.00,,,0.43,VWS V13.01,2013-05-22 22:46:00,
2013-05-22 18:51:00,78.6,17.5,29.09,West,276,3.6,15.0,10,0.00,,,0.43,VWS V13.01,2013-05-22 22:51:00,
2013-05-22 18:56:00,78.4,17.4,29.09,SSW,212,3.1,15.0,10,0.00,,,0.43,VWS V13.01,2013-05-22 22:56:00,
2013-05-22 19:01:00,78.4,17.4,29.09,SSW,211,3.1,15.0,10,0.00,,,0.43,VWS V13.01,2013-05-22 23:01:00,
2013-05-22 19:06:00,78.3,17.3,29.09,SE,135,0.0,15.0,10,0.00,,,0.43,VWS V13.01,2013-05-22 23:06:00,
2013-05-22 19:11:00,78.1,17.1,29.09,SE,130,4.9,15.0,10,0.00,,,0.43,VWS V13.01,2013-05-22 23:11:00,
2013-05-22 19:16:00,78.1,17.1,29.09,SSW,198,7.6,15.0,10,0.00,,,0.43,VWS V13.01,2013-05-22 23:16:00,
2013-05-22 19:21:00,78.1,17.1,29.09,SSE,150,4.9,15.0,10,0.00,,,0.43,VWS V13.01,2013-05-22 23:21:00,
2013-05-22 19:26:00,77.5,22.9,29.12,South,185,13.2,15.0,13,0.00,,,0.43,VWS V13.01,2013-05-22 23:26:00,
2013-05-22 19:31:00,76.1,21.7,29.12,SW,222,10.1,19.7,13,0.00,,,0.43,VWS V13.01,2013-05-22 23:31:00,
2013-05-22 19:36:00,75.6,24.7,29.12,SSE,164,5.8,19.7,15,0.00,,,0.43,VWS V13.01,2013-05-22 23:36:00,
2013-05-22 19:41:00,75.4,24.6,29.12,West,262,5.8,19.7,15,0.00,,,0.43,VWS V13.01,2013-05-22 23:41:00,
2013-05-22 19:46:00,75.0,25.8,29.12,WNW,303,5.8,19.7,16,0.00,,,0.43,VWS V13.01,2013-05-22 23:46:00,
2013-05-22 19:51:00,74.1,25.1,29.12,WNW,287,10.1,19.7,16,0.00,,,0.43,VWS V13.01,2013-05-22 23:51:00,
2013-05-22 19:56:00,73.2,24.4,29.12,NW,320,8.3,19.7,16,0.00,,,0.43,VWS V13.01,2013-05-22 23:56:00,
2013-05-22 20:01:00,72.3,30.2,29.12,NW,316,7.6,19.7,21,0.00,,,0.43,VWS V13.01,2013-05-23 00:01:00,
2013-05-22 20:06:00,71.6,30.8,29.12,WNW,284,8.7,19.7,22,0.00,,,0.43,VWS V13.01,2013-05-23 00:06:00,
2013-05-22 20:11:00,70.9,34.3,29.12,West,271,4.9,19.7,26,0.00,,,0.43,VWS V13.01,2013-05-23 00:11:00,
2013-05-22 20:16:00,69.6,38.5,29.12,NW,311,2.2,19.7,32,0.00,,,0.43,VWS V13.01,2013-05-23 00:16:00,
2013-05-22 20:21:00,68.9,38.6,29.12,NW,313,0.0,19.7,33,0.00,,,0.43,VWS V13.01,2013-05-23 00:21:00,
2013-05-22 20:26:00,68.2,40.9,29.12,NNE,12,3.1,19.7,37,0.00,,,0.43,VWS V13.01,2013-05-23 00:26:00,
2013-05-22 20:32:00,68.0,42.8,29.12,NNE,17,2.7,19.7,40,0.00,,,0.43,VWS V13.01,2013-05-23 00:32:00,
2013-05-22 20:37:00,67.8,43.3,29.12,North,353,3.1,19.7,41,0.00,,,0.43,VWS V13.01,2013-05-23 00:37:00,
2013-05-22 20:42:00,67.8,44.5,29.12,North,353,2.7,19.7,43,0.00,,,0.43,VWS V13.01,2013-05-23 00:42:00,
2013-05-22 20:47:00,67.8,44.5,29.12,NNE,23,2.2,19.7,43,0.00,,,0.43,VWS V13.01,2013-05-23 00:47:00,
2013-05-22 20:52:00,67.6,44.4,29.12,North,8,0.0,19.7,43,0.00,,,0.43,VWS V13.01,2013-05-23 00:52:00,
2013-05-22 20:57:00,67.5,44.2,29.12,North,8,0.0,19.7,43,0.00,,,0.43,VWS V13.01,2013-05-23 00:57:00,
2013-05-22 21:02:00,67.3,44.0,29.12,North,11,3.6,19.7,43,0.00,,,0.43,VWS V13.01,2013-05-23 01:02:00,
2013-05-22 21:07:00,67.1,45.1,29.12,North,2,0.0,19.7,45,0.00,,,0.43,VWS V13.01,2013-05-23 01:07:00,
2013-05-22 21:12:00,67.1,45.7,29.12,SE,130,0.0,19.7,46,0.00,,,0.43,VWS V13.01,2013-05-23 01:12:00,
2013-05-22 21:17:00,67.1,45.1,29.12,NNE,22,2.2,19.7,45,0.00,,,0.43,VWS V13.01,2013-05-23 01:17:00,
2013-05-22 21:22:00,67.5,46.0,29.12,ENE,68,0.0,19.7,46,0.00,,,0.43,VWS V13.01,2013-05-23 01:22:00,
2013-05-22 21:27:00,67.6,46.1,29.12,ENE,68,0.0,19.7,46,0.00,,,0.43,VWS V13.01,2013-05-23 01:27:00,
2013-05-22 21:32:00,67.8,46.3,29.12,NNE,12,0.0,19.7,46,0.00,,,0.43,VWS V13.01,2013-05-23 01:32:00,
2013-05-22 21:37:00,67.8,45.7,29.12,NNE,12,0.0,19.7,45,0.00,,,0.43,VWS V13.01,2013-05-23 01:37:00,
2013-05-22 21:42:00,67.8,45.7,29.12,SE,133,2.7,19.7,45,0.00,,,0.43,VWS V13.01,2013-05-23 01:42:00,
2013-05-22 21:47:00,67.6,45.6,29.12,SE,133,0.0,19.7,45,0.00,,,0.43,VWS V13.01,2013-05-23 01:47:00,
2013-05-22 21:52:00,67.5,46.0,29.12,SE,133,0.0,19.7,46,0.00,,,0.43,VWS V13.01,2013-05-23 01:52:00,
2013-05-22 21:57:00,67.1,46.8,29.12,SE,133,2.2,19.7,48,0.00,,,0.43,VWS V13.01,2013-05-23 01:57:00,
2013-05-22 22:02:00,66.9,47.2,29.12,SE,133,0.0,19.7,49,0.00,,,0.43,VWS V13.01,2013-05-23 02:02:00,
2013-05-22 22:09:00,66.9,47.2,29.12,SE,133,2.2,19.7,49,0.00,,,0.43,VWS V13.01,2013-05-23 02:09:00,
2013-05-22 22:14:00,66.7,47.5,29.12,SE,133,0.0,19.7,50,0.00,,,0.43,VWS V13.01,2013-05-23 02:14:00,
2013-05-22 22:19:00,66.7,47.5,29.12,SE,133,0.0,19.7,50,0.00,,,0.43,VWS V13.01,2013-05-23 02:19:00,
2013-05-22 22:24:00,66.7,47.5,29.12,SE,133,0.0,19.7,50,0.00,,,0.43,VWS V13.01,2013-05-23 02:24:00,
2013-05-22 22:29:00,66.7,48.1,29.12,SE,133,0.0,19.7,51,0.00,,,0.43,VWS V13.01,2013-05-23 02:29:00,
2013-05-22 22:34:00,66.7,48.1,29.12,SE,133,0.0,19.7,51,0.00,,,0.43,VWS V13.01,2013-05-23 02:34:00,
2013-05-22 22:39:00,66.7,48.6,29.12,SE,133,0.0,19.7,52,0.00,,,0.43,VWS V13.01,2013-05-23 02:39:00,
2013-05-22 22:44:00,66.6,48.4,29.12,SE,133,0.0,19.7,52,0.00,,,0.43,VWS V13.01,2013-05-23 02:44:00,
2013-05-22 22:49:00,66.6,48.9,29.12,SE,133,0.0,19.7,53,0.00,,,0.43,VWS V13.01,2013-05-23 02:49:00,
2013-05-22 22:54:00,66.6,48.9,29.12,SE,133,0.0,19.7,53,0.00,,,0.43,VWS V13.01,2013-05-23 02:54:00,
2013-05-22 22:59:00,66.6,49.4,29.12,SE,133,0.0,19.7,54,0.00,,,0.43,VWS V13.01,2013-05-23 02:59:00,
2013-05-22 23:04:00,66.4,49.7,29.12,SE,133,0.0,19.7,55,0.00,,,0.43,VWS V13.01,2013-05-23 03:04:00,
2013-05-22 23:09:00,66.6,50.4,29.12,SE,133,2.2,19.7,56,0.00,,,0.43,VWS V13.01,2013-05-23 03:09:00,
2013-05-22 23:14:00,66.4,50.7,29.12,SE,133,0.0,19.7,57,0.00,,,0.43,VWS V13.01,2013-05-23 03:14:00,
2013-05-22 23:19:00,66.4,50.7,29.12,SE,133,0.0,19.7,57,0.00,,,0.43,VWS V13.01,2013-05-23 03:19:00,
2013-05-22 23:25:00,66.4,50.7,29.12,SE,133,0.0,19.7,57,0.00,,,0.43,VWS V13.01,2013-05-23 03:25:00,
2013-05-22 23:30:00,66.2,51.0,29.15,SE,133,2.2,19.7,58,0.00,,,0.43,VWS V13.01,2013-05-23 03:30:00,
2013-05-22 23:35:00,66.2,51.0,29.15,SE,133,0.0,19.7,58,0.00,,,0.43,VWS V13.01,2013-05-23 03:35:00,
2013-05-22 23:40:00,66.0,51.3,29.15,SE,131,2.2,19.7,59,0.00,,,0.43,VWS V13.01,2013-05-23 03:40:00,
2013-05-22 23:45:00,66.0,52.2,29.12,SE,127,0.0,19.7,61,0.00,,,0.43,VWS V13.01,2013-05-23 03:45:00,
2013-05-22 23:50:00,65.8,52.0,29.12,SE,127,0.0,19.7,61,0.00,,,0.43,VWS V13.01,2013-05-23 03:50:00,
2013-05-22 23:55:00,66.0,52.6,29.12,SE,127,0.0,19.7,62,0.00,,,0.43,VWS V13.01,2013-05-23 03:55:00,